Voltar ao catálogo

IRIDIUM 33 DEB

AtivoPO
NORAD 34652·DEBRIS·🇺🇸 United States

Lançado Sep 14, 1997 de Baikonur Cosmodrome

Loading…

Próximas Passagens (próximas 24 horas)

TLE

AtualizadoSource: Space-Track

Época: Sep 14, 2026, 08:37 UTC

1 34652U 97051KD  26257.35967192  .00002753  00000-0  51661-3 0  9995
2 34652  86.3316 217.0294 0030412  74.8492  76.6577 14.64100210925146

Acompanhe IRIDIUM 33 DEB em tempo real com AllMySat

Download on the App Store